WX5II-2 Weather Reports


Display with metric or nautical units.
time (UTC)temp
F
wind
direction
speed
MPH
gust
MPH
rain 1hr
in
rain 24hr
in
rain mn
in
humidity
%
barometer
mb
20260508013816 68 351 0.0 0.0 0.00 0.00 0.00 53 1015.4
20260508012755 68 351 0.0 0.0 0.00 0.00 0.00 53 1015.4
20260508011732 68 351 0.0 0.0 0.00 0.00 0.00 53 1015.4
20260508010709 68 351 0.0 0.0 0.00 0.00 0.00 53 1015.4
20260508005646 68 351 0.0 0.0 0.00 0.00 0.00 53 1015.4
20260508004623 67 351 0.0 0.0 0.00 0.00 0.00 52 1015.4
20260508003601 67 351 0.0 0.0 0.00 0.00 0.00 52 1014.4
20260508002537 67 351 0.0 0.0 0.00 0.00 0.00 52 1014.4
20260508001515 67 351 0.0 0.0 0.00 0.00 0.00 51 1014.4
20260508000453 67 351 0.0 0.0 0.00 0.00 0.00 52 1014.4
20260507235429 67 351 0.0 0.0 0.00 0.00 0.00 51 1014.4
20260507234407 67 351 0.0 0.0 0.00 0.00 0.00 51 1014.4
20260507233344 67 351 0.0 0.0 0.00 0.00 0.00 50 1013.4
20260507232321 67 351 0.0 0.0 0.00 0.00 0.00 50 1013.4
20260507231258 67 351 0.0 0.0 0.00 0.00 0.00 50 1013.4
20260507230235 67 351 0.0 0.0 0.00 0.00 0.00 50 1014.4
20260507224150 67 351 0.0 0.0 0.00 0.00 0.00 52 1014.4
20260507223127 67 351 0.0 0.0 0.00 0.00 0.00 52 1014.4
20260507222104 68 351 0.0 0.0 0.00 0.00 0.00 53 1015.4
20260507221040 68 351 0.0 0.0 0.00 0.00 0.00 53 1015.4
20260507220018 68 351 0.0 0.0 0.00 0.00 0.00 52 1015.4
20260507214955 68 351 0.0 0.0 0.00 0.00 0.00 52 1015.4
20260507213933 68 351 0.0 0.0 0.00 0.00 0.00 51 1015.4
20260507212910 68 351 0.0 0.0 0.00 0.00 0.00 52 1015.4
20260507211847 68 351 0.0 0.0 0.00 0.00 0.00 52 1015.4
20260507205801 67 351 0.0 0.0 0.00 0.00 0.00 56 1016.4
20260507204738 67 351 0.0 0.0 0.00 0.00 0.00 58 1016.4
20260507202652 65 351 0.0 0.0 0.00 0.00 0.00 60 1017.4
20260507201630 65 351 0.0 0.0 0.00 0.00 0.00 60 1017.4
20260507200607 65 351 0.0 0.0 0.00 0.00 0.00 62 1016.4
20260507195545 65 351 0.0 0.0 0.00 0.00 0.00 63 1016.4
20260507194522 65 351 0.0 0.0 0.00 0.00 0.00 61 1016.4
20260507193459 65 351 0.0 0.0 0.00 0.00 0.00 60 1016.4
20260507192436 65 351 0.0 0.0 0.00 0.00 0.00 58 1016.4
20260507191411 66 351 0.0 0.0 0.00 0.00 0.00 56 1016.4
20260507190348 65 351 0.0 0.0 0.00 0.00 0.00 60 1016.4
20260507184302 65 351 0.0 0.0 0.00 0.00 0.00 62 1016.4
20260507183240 64 351 0.0 0.0 0.00 0.00 0.00 65 1017.4
20260507182217 64 351 0.0 0.0 0.00 0.00 0.00 63 1017.4
20260507181154 64 351 0.0 0.0 0.00 0.00 0.00 63 1017.4
20260507180131 64 351 0.0 0.0 0.00 0.00 0.00 62 1017.4
20260507175109 65 351 0.0 0.0 0.00 0.00 0.00 61 1017.4
20260507174046 65 351 0.0 0.0 0.00 0.00 0.00 60 1017.4
20260507173023 64 351 0.0 0.0 0.00 0.00 0.00 62 1016.4
20260507172000 63 351 0.0 0.0 0.00 0.00 0.00 66 1017.4
20260507170938 63 351 0.0 0.0 0.00 0.00 0.00 67 1017.4
20260507165915 63 351 0.0 0.0 0.00 0.00 0.00 68 1017.4
20260507164852 63 351 0.0 0.0 0.00 0.00 0.00 69 1018.4
20260507163830 63 351 0.0 0.0 0.00 0.00 0.00 68 1017.4
20260507162807 63 351 0.0 3.0 0.00 0.00 0.00 68 1017.4
20260507161744 63 351 0.0 0.0 0.00 0.00 0.00 68 1017.4
20260507160722 63 351 0.0 0.0 0.00 0.00 0.00 69 1017.4
20260507155659 63 351 0.0 0.0 0.00 0.00 0.00 67 1017.4
20260507154636 64 351 0.0 0.0 0.00 0.00 0.00 66 1017.4
20260507153614 64 351 0.0 0.0 0.00 0.00 0.00 66 1017.4
20260507151528 64 351 0.0 0.0 0.00 0.00 0.00 66 1017.4
20260507150505 64 351 0.0 0.0 0.00 0.00 0.00 66 1016.4
20260507145443 65 351 0.0 0.0 0.00 0.00 0.00 65 1016.4
20260507144421 65 351 0.0 3.0 0.00 0.00 0.00 65 1016.4
20260507142335 65 351 0.0 3.0 0.00 0.00 0.00 64 1016.4
20260507141312 66 351 0.0 4.0 0.00 0.00 0.00 64 1016.4
20260507140249 66 351 0.0 0.0 0.00 0.00 0.00 64 1016.4
20260507135226 66 351 0.0 4.0 0.00 0.00 0.00 66 1016.4
20260507134203 66 351 0.0 0.0 0.00 0.00 0.00 67 1016.4
20260507132117 66 351 0.0 3.0 0.00 0.00 0.00 66 1016.4
20260507131055 66 351 0.0 0.0 0.00 0.00 0.00 66 1016.4
20260507130032 66 351 0.0 3.0 0.00 0.00 0.00 66 1015.4
20260507125011 66 351 0.0 0.0 0.00 0.00 0.00 67 1015.4
20260507123947 66 351 0.0 0.0 0.00 0.00 0.00 67 1015.4
20260507122924 66 351 0.0 0.0 0.00 0.00 0.00 67 1015.4
20260507121901 66 351 0.0 0.0 0.00 0.00 0.00 67 1015.4
20260507120839 66 351 0.0 0.0 0.00 0.00 0.00 67 1015.4
20260507115816 66 351 0.0 0.0 0.00 0.00 0.00 67 1015.4
20260507114753 66 351 0.0 0.0 0.00 0.00 0.00 67 1015.4
20260507113731 66 351 0.0 0.0 0.00 0.00 0.00 67 1015.4
20260507111645 66 351 0.0 0.0 0.00 0.00 0.00 67 1015.4
20260507110623 66 351 0.0 0.0 0.00 0.00 0.00 67 1014.4
20260507105600 66 351 0.0 0.0 0.00 0.00 0.00 67 1014.4
20260507104537 66 351 0.0 0.0 0.00 0.00 0.00 66 1014.4
20260507103514 66 351 0.0 0.0 0.00 0.00 0.00 66 1014.4
20260507102451 66 351 0.0 0.0 0.00 0.00 0.00 66 1014.4
20260507101429 66 351 0.0 0.0 0.00 0.00 0.00 67 1014.4
20260507100406 66 351 0.0 0.0 0.00 0.00 0.00 67 1014.4
20260507095343 66 351 0.0 3.0 0.00 0.00 0.00 66 1014.4
20260507094321 66 351 0.0 3.0 0.00 0.00 0.00 67 1014.4
20260507093258 66 351 0.0 3.0 0.00 0.00 0.00 67 1014.4
20260507092237 65 351 0.0 3.0 0.00 0.00 0.00 67 1014.4
20260507091213 65 351 0.0 0.0 0.00 0.00 0.00 67 1014.4
20260507090150 65 351 0.0 0.0 0.00 0.00 0.00 68 1014.4
20260507085124 65 351 0.0 0.0 0.00 0.00 0.00 67 1014.4
20260507084102 65 351 0.0 3.0 0.00 0.00 0.00 67 1014.4
20260507083039 65 351 0.0 0.0 0.00 0.00 0.00 67 1014.4
20260507082016 66 351 0.0 3.0 0.00 0.00 0.00 67 1015.4
20260507080953 66 351 0.0 0.0 0.00 0.00 0.00 67 1015.4
20260507075931 66 351 0.0 0.0 0.00 0.00 0.00 67 1015.4
20260507074908 66 351 0.0 0.0 0.00 0.00 0.00 66 1015.4
20260507073847 66 351 0.0 0.0 0.00 0.00 0.00 67 1015.4
20260507072822 66 351 0.0 0.0 0.00 0.00 0.00 67 1015.4
20260507071801 66 351 0.0 0.0 0.00 0.00 0.00 67 1015.4
20260507070737 66 351 0.0 0.0 0.00 0.00 0.00 68 1015.4
20260507065715 66 351 0.0 0.0 0.00 0.00 0.00 68 1015.4
20260507064652 66 351 0.0 0.0 0.00 0.00 0.00 69 1015.4
20260507063629 66 351 0.0 0.0 0.00 0.00 0.00 70 1015.4
20260507062607 66 351 0.0 0.0 0.00 0.00 0.00 70 1015.4
20260507061543 66 351 0.0 0.0 0.00 0.00 0.00 69 1015.4
20260507060521 66 351 0.0 0.0 0.00 0.00 0.00 68 1014.4
20260507055458 66 351 0.0 0.0 0.00 0.00 0.00 68 1014.4
20260507054436 66 351 0.0 0.0 0.00 0.00 0.00 67 1014.4
20260507053413 66 351 0.0 0.0 0.00 0.00 0.00 67 1014.4
20260507052349 67 351 0.0 0.0 0.00 0.00 0.00 66 1014.4
20260507051327 67 351 0.0 0.0 0.00 0.00 0.00 66 1014.4
20260507050304 67 351 0.0 0.0 0.00 0.00 0.00 66 1013.4
20260507045242 67 351 0.0 0.0 0.00 0.00 0.00 66 1013.4
20260507044218 67 351 0.0 0.0 0.00 0.00 0.00 66 1013.4
20260507043156 68 351 0.0 0.0 0.00 0.00 0.00 65 1014.4
20260507042134 68 351 0.0 0.0 0.00 0.00 0.00 65 1012.4
20260507041110 68 351 0.0 0.0 0.00 0.00 0.00 66 1012.4
20260507040047 68 351 0.0 0.0 0.00 0.00 0.00 65 1013.4
20260507035024 68 351 0.0 0.0 0.00 0.00 0.00 65 1012.4
20260507034003 68 351 0.0 0.0 0.00 0.00 0.00 65 1012.4
20260507032938 68 351 0.0 0.0 0.00 0.00 0.00 63 1012.4
20260507031915 68 351 0.0 0.0 0.00 0.00 0.00 62 1012.4
20260507030854 69 351 0.0 0.0 0.00 0.00 0.00 61 1012.4
20260507025831 69 351 0.0 0.0 0.00 0.00 0.00 59 1012.4
20260507024808 70 351 0.0 0.0 0.00 0.00 0.00 59 1012.4
20260507023744 70 351 0.0 0.0 0.00 0.00 0.00 59 1011.4
20260507022721 71 351 0.0 0.0 0.00 0.00 0.00 59 1011.4
20260507021658 71 351 0.0 0.0 0.00 0.00 0.00 59 1011.4
20260507020635 72 351 0.0 0.0 0.00 0.00 0.00 58 1011.4
20260507015612 72 351 0.0 0.0 0.00 0.00 0.00 57 1011.4
20260507014550 73 351 0.0 0.0 0.00 0.00 0.00 56 1011.4